This is the latest recevied weather packets stored in our database for station/object N5CSU. If no packets are shown the sender has not sent any weather packets the latest 10 day(s).
| Time | Temp. | Humidity | Pressure | Rain* | Wind** | Luminosity | Snow |
|---|---|---|---|---|---|---|---|
| 1778013773 | 30.56° C | 64% | 1004.5 hPa | 0 mm | - | 22 W/m² | - |
| 1778013470 | 30.56° C | 63% | 1004.7 hPa | 0 mm | - | 14 W/m² | - |
| 1778013167 | 30.56° C | 63% | 1004.5 hPa | 0 mm | - | 18 W/m² | - |
| 1778012862 | 30.56° C | 63% | 1004.7 hPa | 0 mm | - | 13 W/m² | - |
| 1778012559 | 30.56° C | 64% | 1004.7 hPa | 0 mm | - | 14 W/m² | - |
| 1778012256 | 30.56° C | 68% | 1004.8 hPa | 0 mm | - | 23 W/m² | - |
| 1778011953 | 30° C | 65% | 1004.9 hPa | 0 mm | - | 15 W/m² | - |
| 1778011651 | 30° C | 65% | 1005 hPa | 0 mm | - | 18 W/m² | - |
| 1778011348 | 30° C | 67% | 1005 hPa | 0 mm | - | 16 W/m² | - |
| 1778011043 | 30° C | 66% | 1004.9 hPa | 0 mm | - | 15 W/m² | - |
| 1778010741 | 30° C | 68% | 1005 hPa | 0 mm | - | 17 W/m² | - |
| 1778010438 | 29.44° C | 67% | 1004.9 hPa | 0 mm | - | 19 W/m² | - |
| 1778010134 | 29.44° C | 68% | 1004.9 hPa | 0 mm | - | 22 W/m² | - |
| 1778009831 | 29.44° C | 69% | 1005.2 hPa | 0 mm | - | 56 W/m² | - |
| 1778009528 | 29.44° C | 68% | 1004.9 hPa | 0 mm | - | 75 W/m² | - |
| 1778009227 | 28.89° C | 69% | 1005.2 hPa | 0 mm | - | 52 W/m² | - |
| 1778008924 | 28.89° C | 69% | 1005.1 hPa | 0 mm | - | 55 W/m² | - |
| 1778008622 | 28.89° C | 69% | 1005 hPa | 0 mm | - | 91 W/m² | - |
| 1778008320 | 28.89° C | 72% | 1005.1 hPa | 0 mm | - | 28 W/m² | - |
| 1778008016 | 28.89° C | 69% | 1005.2 hPa | 0 mm | - | 31 W/m² | - |
| 1778007715 | 28.89° C | 71% | 1005.1 hPa | 0 mm | - | 30 W/m² | - |
| 1778007412 | 28.33° C | 72% | 1005.3 hPa | 0 mm | - | 32 W/m² | - |
| 1778007109 | 28.33° C | 72% | 1005.3 hPa | 0 mm | - | 50 W/m² | - |
| 1778006805 | 28.33° C | 72% | 1005.3 hPa | 0 mm | - | 45 W/m² | - |
| 1778006503 | 27.78° C | 73% | 1005.2 hPa | 0 mm | - | 38 W/m² | - |
* Rain latest hour (hover to see other rain measurements)
** Current wind speed in m/s (hover to see current wind gust speed)